User: anonymous   Login
Location: Corralito
(10.2667°N, 66.9500°W)
Time: 14:21:48
(UTC+00:00)
Language:

SL-16 R/B - Orbit

View from above orbital plane
View from above orbital plane
View from above satellite
View from above satellite

Ground track
Ground track

The orbit data is extracted from the following two-line orbital elements,

1 31793U 07029B   23271.11104116 -.00000144  00000-0 -49876-4 0  9990
2 31793  70.9743 250.3523 0003043 272.2069 157.9200 14.14556785839081
Epoch (UTC): 28 September 2023 02:39:53
Eccentricity: 0.0003043
inclination: 70.9743°
perigee height: 841 km
apogee height: 846 km
right ascension of ascending node: 250.3523°
argument of perigee: 272.2069°
revolutions per day: 14.14556785
mean anomaly at epoch: 157.9200°
orbit number at epoch: 83908

The dashed part of the orbit path shows where the satellite is in the earth's shadow,  

DLR